K9BM Weather Reports


time (UTC)temp
C
wind
direction
speed
KPH
gust
KPH
rain 1hr
cm
rain 24hr
cm
rain mn
cm
humidity
%
barometer
mb
20260507070009 10 260 3.2 11.3 0.10 0.10 0.10 79 1010.1
20260507065505 10 278 4.8 11.3 0.10 0.10 0.10 77 1010.1
20260507065005 10 333 4.8 12.9 0.08 0.08 0.08 76 1010.2
20260507064004 10 330 9.7 14.5 0.00 0.00 0.00 70 1009.8
20260507063505 11 340 9.7 16.1 0.00 0.00 0.00 70 1009.6
20260507062505 11 9 6.4 19.3 0.00 0.00 0.00 69 1009.3
20260507062004 11 346 11.3 27.4 0.00 0.00 0.00 67 1009.2
20260507061005 12 340 20.9 32.2 0.00 0.00 0.00 62 1009.6
20260507060004 12 328 22.5 48.3 0.00 0.00 0.00 59 1009.5
20260507055004 13 320 27.4 38.6 0.00 0.00 0.00 47 1009.2
20260507054505 14 309 16.1 25.7 0.00 0.00 0.00 41 1008.9
20260507053005 14 278 14.5 20.9 0.00 0.00 0.00 40 1008.4
20260507052004 14 258 14.5 19.3 0.00 0.00 0.00 39 1008.3
20260507051504 14 255 14.5 19.3 0.00 0.00 0.00 39 1008.3
20260507051004 14 248 14.5 19.3 0.00 0.00 0.00 39 1008.4
20260507050005 14 247 14.5 19.3 0.00 0.00 0.00 39 1008.5
20260507045005 14 245 16.1 19.3 0.00 0.00 0.00 39 1008.7
20260507044504 14 245 14.5 19.3 0.00 0.00 0.00 39 1008.8
20260507044004 15 253 14.5 19.3 0.00 0.00 0.00 38 1008.9
20260507043504 15 277 14.5 19.3 0.00 0.00 0.00 38 1009.0
20260507043004 15 271 14.5 19.3 0.00 0.00 0.00 37 1009.1
20260507042504 15 284 12.9 22.5 0.00 0.00 0.00 36 1009.1
20260507042005 15 284 16.1 22.5 0.00 0.00 0.00 35 1009.0
20260507041504 15 299 16.1 22.5 0.00 0.00 0.00 35 1009.1
20260507041004 15 288 14.5 20.9 0.00 0.00 0.00 35 1009.1
20260507040005 16 278 14.5 22.5 0.00 0.00 0.00 34 1009.2
20260507035504 16 297 16.1 25.7 0.00 0.00 0.00 34 1009.3
20260507035005 16 302 14.5 25.7 0.00 0.00 0.00 33 1009.3
20260507034505 16 297 16.1 29.0 0.00 0.00 0.00 33 1009.2
20260507034005 16 287 20.9 29.0 0.00 0.00 0.00 34 1009.2
20260507033504 16 295 19.3 41.8 0.00 0.00 0.00 34 1009.4
20260507033004 16 279 22.5 41.8 0.00 0.00 0.00 35 1009.4
20260507032004 16 297 17.7 40.2 0.00 0.00 0.00 35 1009.2
20260507031504 16 305 25.7 40.2 0.00 0.00 0.00 35 1009.5
20260507031004 15 294 19.3 24.1 0.00 0.00 0.00 35 1009.3
20260507030004 15 275 14.5 19.3 0.00 0.00 0.00 35 1009.0
20260507025504 15 262 14.5 20.9 0.00 0.00 0.00 35 1009.0
20260507025004 16 268 16.1 22.5 0.00 0.00 0.00 34 1009.0
20260507024504 16 272 16.1 24.1 0.00 0.00 0.00 33 1009.0
20260507023504 16 259 16.1 22.5 0.00 0.00 0.00 33 1009.0
20260507023004 16 282 14.5 22.5 0.00 0.00 0.00 33 1009.0
20260507022504 16 284 14.5 22.5 0.00 0.00 0.00 32 1009.0
20260507021504 16 285 14.5 25.7 0.00 0.00 0.00 32 1009.0
20260507021004 16 281 19.3 25.7 0.00 0.00 0.00 31 1009.0
20260507020004 17 281 16.1 27.4 0.00 0.00 0.00 31 1009.1
20260507015005 17 284 16.1 29.0 0.00 0.00 0.00 30 1009.2
20260507014005 17 283 20.9 33.8 0.00 0.00 0.00 30 1009.3
20260507013504 17 290 20.9 40.2 0.00 0.00 0.00 29 1009.3
20260507013004 18 297 27.4 40.2 0.00 0.00 0.00 28 1009.4
20260507012504 18 295 24.1 32.2 0.00 0.00 0.00 28 1009.4
20260507012004 18 289 20.9 33.8 0.00 0.00 0.00 29 1009.5
20260507011504 18 302 22.5 41.8 0.00 0.00 0.00 28 1009.6
20260507011004 18 288 29.0 41.8 0.00 0.00 0.00 28 1009.7
20260507010004 18 292 20.9 38.6 0.00 0.00 0.00 28 1009.7
20260507005504 18 300 27.4 38.6 0.00 0.00 0.00 28 1009.7
20260507005004 18 287 19.3 38.6 0.00 0.00 0.00 29 1009.7
20260507004504 18 298 25.7 40.2 0.00 0.00 0.00 28 1009.9
20260507004004 18 283 25.7 41.8 0.00 0.00 0.00 28 1009.8
20260507003504 18 295 22.5 41.8 0.00 0.00 0.00 29 1009.9
20260507003004 17 298 20.9 40.2 0.00 0.00 0.00 29 1010.0
20260507002503 17 298 27.4 46.7 0.00 0.00 0.00 29 1010.0
20260507001504 17 292 20.9 40.2 0.00 0.00 0.00 28 1010.2
20260507001004 18 312 20.9 45.1 0.00 0.00 0.00 28 1010.2
20260507000004 18 304 20.9 35.4 0.00 0.00 0.00 28 1010.4
20260506235004 18 305 32.2 48.3 0.00 0.00 0.00 27 1010.6
20260506234504 18 307 24.1 40.2 0.00 0.00 0.00 27 1010.6
20260506234006 18 303 27.4 41.8 0.00 0.00 0.00 27 1010.6
20260506233507 18 310 29.0 41.8 0.00 0.00 0.00 27 1010.8
20260506233006 18 301 25.7 45.1 0.00 0.00 0.00 27 1010.8
20260506232505 18 315 29.0 45.1 0.00 0.00 0.00 27 1010.9
20260506232006 18 309 27.4 46.7 0.00 0.00 0.00 27 1011.0
20260506231506 17 303 32.2 46.7 0.00 0.00 0.00 27 1011.1
20260506231006 17 278 32.2 51.5 0.00 0.00 0.00 27 1011.1
20260506230006 17 302 27.4 49.9 0.00 0.00 0.00 26 1011.2
20260506225506 17 285 32.2 45.1 0.00 0.00 0.00 25 1011.3
20260506225007 17 293 32.2 41.8 0.00 0.00 0.00 25 1011.4
20260506224506 17 284 27.4 41.8 0.00 0.00 0.00 25 1011.4
20260506224006 17 301 29.0 45.1 0.00 0.00 0.00 25 1011.6
20260506222506 17 284 32.2 48.3 0.00 0.00 0.00 25 1012.1
20260506222007 17 288 27.4 48.3 0.00 0.00 0.00 26 1012.1
20260506221506 17 290 27.4 48.3 0.00 0.00 0.00 26 1012.2
20260506221006 17 281 29.0 46.7 0.00 0.00 0.00 25 1012.4
20260506220006 17 296 33.8 46.7 0.00 0.00 0.00 26 1012.4
20260506215506 17 275 27.4 46.7 0.00 0.00 0.00 26 1012.5
20260506215007 17 277 29.0 46.7 0.00 0.00 0.00 27 1012.5
20260506214506 16 276 29.0 49.9 0.00 0.00 0.00 26 1012.6
20260506214006 16 292 33.8 49.9 0.00 0.00 0.00 27 1012.7
20260506213506 16 305 33.8 41.8 0.00 0.00 0.00 28 1012.7
20260506213006 16 275 30.6 46.7 0.00 0.00 0.00 28 1012.8
20260506212506 16 286 30.6 46.7 0.00 0.00 0.00 28 1013.0
20260506212006 16 285 29.0 41.8 0.00 0.00 0.00 29 1012.9
20260506211006 16 284 32.2 41.8 0.00 0.00 0.00 27 1013.3
20260506210006 15 300 25.7 40.2 0.00 0.00 0.00 27 1013.4
20260506205506 15 272 25.7 46.7 0.00 0.00 0.00 27 1013.6
20260506204506 15 297 25.7 46.7 0.00 0.00 0.00 28 1013.8
20260506204006 15 249 25.7 41.8 0.00 0.00 0.00 28 1013.9
20260506203506 15 287 27.4 41.8 0.00 0.00 0.00 28 1014.1
20260506203006 15 261 29.0 41.8 0.00 0.00 0.00 27 1014.2
20260506202505 15 266 25.7 41.8 0.00 0.00 0.00 27 1014.3
20260506202006 14 270 25.7 38.6 0.00 0.00 0.00 28 1014.3
20260506201505 14 268 25.7 41.8 0.00 0.00 0.00 26 1014.5
20260506201006 14 251 30.6 41.8 0.00 0.00 0.00 27 1014.5
20260506200006 14 262 25.7 37.0 0.00 0.00 0.00 27 1014.7
20260506195506 13 288 20.9 41.8 0.00 0.00 0.00 29 1014.8
20260506195006 13 252 25.7 41.8 0.00 0.00 0.00 27 1014.9
20260506194506 13 279 27.4 41.8 0.00 0.00 0.00 28 1015.0
20260506194006 13 261 24.1 41.8 0.00 0.00 0.00 28 1015.0
20260506193506 13 276 32.2 41.8 0.00 0.00 0.00 28 1015.3
20260506193006 13 263 22.5 45.1 0.00 0.03 0.00 29 1015.4
20260506192506 13 274 29.0 45.1 0.00 0.03 0.00 28 1015.5
20260506192006 13 285 27.4 45.1 0.00 0.03 0.00 29 1015.4
20260506191506 12 276 29.0 41.8 0.00 0.03 0.00 28 1015.4
20260506191006 12 269 30.6 41.8 0.00 0.03 0.00 28 1015.7
20260506190006 12 275 27.4 41.8 0.00 0.03 0.00 29 1015.8
20260506185506 12 274 29.0 45.1 0.00 0.03 0.00 29 1015.8
20260506185006 12 241 25.7 45.1 0.00 0.03 0.00 30 1016.0
20260506184506 12 274 27.4 40.2 0.00 0.03 0.00 30 1016.1
20260506183006 11 238 27.4 41.8 0.00 0.03 0.00 30 1016.2
20260506182506 11 267 25.7 40.2 0.00 0.03 0.00 31 1016.4
20260506182005 11 257 22.5 41.8 0.00 0.03 0.00 34 1016.5
20260506181506 10 263 27.4 45.1 0.00 0.03 0.00 30 1016.6
20260506181006 10 252 27.4 45.1 0.00 0.03 0.00 32 1016.7
20260506180006 10 260 29.0 41.8 0.00 0.03 0.00 32 1016.9
20260506175506 10 262 27.4 41.8 0.00 0.03 0.00 32 1017.1
20260506175006 10 251 29.0 41.8 0.00 0.03 0.00 31 1017.1
20260506174506 10 249 27.4 41.8 0.00 0.03 0.00 33 1017.2
20260506174005 9 256 27.4 41.8 0.00 0.03 0.00 31 1017.4
20260506173506 9 264 25.7 41.8 0.00 0.03 0.00 31 1017.5
20260506173007 9 261 27.4 41.8 0.00 0.03 0.00 31 1017.5
20260506172506 9 275 27.4 41.8 0.00 0.03 0.00 32 1017.6
20260506172006 8 265 30.6 41.8 0.00 0.03 0.00 31 1017.6
20260506171506 8 254 30.6 41.8 0.00 0.03 0.00 31 1017.7
20260506170005 8 250 25.7 41.8 0.00 0.03 0.00 34 1017.8
20260506165506 8 254 30.6 41.8 0.00 0.03 0.00 31 1018.0
20260506165006 8 281 27.4 37.0 0.00 0.03 0.00 33 1018.0
20260506164006 8 280 27.4 37.0 0.00 0.03 0.00 33 1018.1
20260506163506 8 268 24.1 32.2 0.00 0.03 0.00 35 1018.1
20260506163006 7 275 20.9 33.8 0.00 0.03 0.00 38 1018.3
20260506162506 7 265 22.5 33.8 0.00 0.03 0.00 38 1018.4
20260506162006 7 260 25.7 41.8 0.00 0.03 0.00 38 1018.5
20260506161006 6 254 25.7 41.8 0.00 0.03 0.00 41 1018.6
20260506160005 6 255 22.5 32.2 0.00 0.03 0.00 45 1018.7
20260506155506 6 266 22.5 32.2 0.00 0.03 0.00 45 1018.7
20260506155006 6 276 25.7 32.2 0.00 0.03 0.00 43 1018.7
20260506154506 6 268 22.5 37.0 0.00 0.03 0.00 47 1018.8
20260506154007 5 264 22.5 37.0 0.00 0.03 0.00 47 1018.8
20260506153506 5 259 22.5 33.8 0.00 0.03 0.00 47 1018.9
20260506153006 5 257 20.9 29.0 0.00 0.03 0.00 48 1018.8
20260506152506 5 267 19.3 27.4 0.00 0.03 0.00 51 1018.9
20260506151505 5 255 20.9 27.4 0.00 0.03 0.00 49 1018.9
20260506151006 5 255 16.1 27.4 0.00 0.03 0.00 53 1019.0
20260506150005 3 258 16.1 22.5 0.00 0.03 0.00 59 1019.1
20260506145506 3 260 14.5 19.3 0.00 0.03 0.00 62 1019.2
20260506144006 2 271 14.5 22.5 0.00 0.03 0.00 66 1019.4
20260506143506 2 273 16.1 22.5 0.00 0.03 0.00 66 1019.5
20260506142505 2 258 11.3 19.3 0.00 0.03 0.00 67 1019.5
20260506142006 2 272 14.5 16.1 0.00 0.03 0.00 68 1019.6
20260506141506 2 248 11.3 16.1 0.00 0.03 0.00 69 1019.6
20260506141006 1 250 11.3 16.1 0.00 0.03 0.00 67 1019.6
20260506140006 1 234 8.0 11.3 0.00 0.03 0.00 68 1019.7
20260506135512 1 237 8.0 14.5 0.00 0.03 0.00 69 1019.7
20260506135006 0 234 9.7 16.1 0.00 0.03 0.00 68 1019.8
20260506134506 0 231 11.3 16.1 0.00 0.03 0.00 68 1019.8
20260506134006 0 227 9.7 16.1 0.00 0.03 0.00 69 1019.8
20260506133506 0 211 9.7 16.1 0.00 0.03 0.00 69 1019.9
20260506133006 0 232 11.3 16.1 0.00 0.03 0.00 70 1019.8
20260506132506 0 231 11.3 16.1 0.00 0.03 0.00 71 1019.8
20260506132006 0 233 12.9 16.1 0.00 0.03 0.00 71 1019.8
20260506131506 0 227 9.7 14.5 0.00 0.03 0.00 72 1019.8
20260506131006 0 212 8.0 16.1 0.00 0.03 0.00 73 1019.8
20260506130006 -1 204 11.3 16.1 0.00 0.03 0.00 73 1019.8
20260506125506 -1 218 9.7 16.1 0.00 0.03 0.00 74 1019.7
20260506125006 -1 208 9.7 14.5 0.00 0.03 0.00 74 1019.7
20260506124505 -1 223 8.0 16.1 0.00 0.03 0.00 75 1019.8
20260506124006 -1 208 9.7 16.1 0.00 0.03 0.00 75 1019.8
20260506123506 -1 207 9.7 14.5 0.00 0.03 0.00 76 1019.8
20260506123006 -2 208 9.7 14.5 0.00 0.03 0.00 77 1019.8
20260506122505 -2 230 9.7 12.9 0.00 0.03 0.00 78 1019.8
20260506122006 -2 237 9.7 12.9 0.00 0.03 0.00 78 1019.8
20260506121506 -2 240 9.7 12.9 0.00 0.03 0.00 78 1019.7
20260506121006 -2 234 9.7 12.9 0.00 0.03 0.00 78 1019.7
20260506120005 -2 231 9.7 11.3 0.00 0.03 0.00 78 1019.8
20260506115505 -2 235 8.0 11.3 0.00 0.03 0.00 78 1019.7
20260506115006 -2 233 8.0 12.9 0.00 0.03 0.00 77 1019.7
20260506114006 -2 234 9.7 12.9 0.00 0.03 0.00 77 1019.7
20260506113506 -2 231 9.7 12.9 0.00 0.03 0.00 77 1019.7
20260506113006 -1 233 8.0 12.9 0.00 0.03 0.00 77 1019.7
20260506112505 -1 230 8.0 11.3 0.00 0.03 0.00 77 1019.8
20260506112006 -1 217 8.0 11.3 0.00 0.03 0.00 77 1019.8
20260506111505 -1 216 8.0 12.9 0.00 0.03 0.00 77 1019.8
20260506111006 -1 231 9.7 12.9 0.00 0.03 0.00 77 1019.8
20260506110005 -1 211 9.7 16.1 0.00 0.03 0.00 78 1019.8
20260506105506 -1 205 11.3 14.5 0.00 0.03 0.00 78 1019.9
20260506105006 -1 203 9.7 14.5 0.00 0.03 0.00 78 1019.9
20260506104505 -1 210 9.7 19.3 0.00 0.03 0.00 78 1019.9
20260506104006 -1 206 9.7 19.3 0.00 0.03 0.00 78 1019.9
20260506103506 -1 203 12.9 19.3 0.00 0.03 0.00 78 1019.9
20260506103006 -1 204 11.3 16.1 0.00 0.03 0.00 78 1019.9
20260506102506 -1 207 9.7 16.1 0.00 0.03 0.00 79 1019.9
20260506102006 -1 207 9.7 16.1 0.00 0.03 0.00 80 1019.9
20260506101505 -1 200 11.3 16.1 0.00 0.03 0.00 80 1019.9
20260506101006 -1 217 8.0 11.3 0.00 0.03 0.00 80 1019.9
20260506100006 -1 218 8.0 12.9 0.00 0.03 0.00 80 1019.9
20260506094506 -1 200 9.7 14.5 0.00 0.03 0.00 79 1020.0
20260506094006 -1 211 8.0 12.9 0.00 0.03 0.00 79 1020.0
20260506093506 -1 206 8.0 12.9 0.00 0.03 0.00 80 1020.0
20260506093006 -1 215 8.0 11.3 0.00 0.03 0.00 81 1020.1
20260506092505 -1 212 8.0 11.3 0.00 0.03 0.00 81 1020.1
20260506092005 0 217 8.0 11.3 0.00 0.03 0.00 81 1020.1
20260506091505 0 239 8.0 11.3 0.00 0.03 0.00 81 1020.1
20260506085505 -1 224 8.0 11.3 0.00 0.03 0.00 83 1020.1
20260506084505 -1 214 4.8 11.3 0.00 0.03 0.00 83 1020.1
20260506084005 -1 203 8.0 11.3 0.00 0.03 0.00 82 1020.1
20260506083505 -1 207 6.4 11.3 0.00 0.03 0.00 82 1020.1
20260506083006 -1 240 8.0 9.7 0.00 0.03 0.00 82 1020.1
20260506082505 -1 233 8.0 12.9 0.00 0.03 0.00 81 1020.1
20260506082006 0 239 8.0 12.9 0.00 0.03 0.00 80 1020.1
20260506081506 0 249 11.3 14.5 0.00 0.03 0.00 81 1020.1
20260506081006 0 244 8.0 14.5 0.00 0.03 0.00 82 1020.1
20260506073505 -1 236 8.0 8.0 0.00 0.03 0.00 83 1020.1
20260506073005 0 233 4.8 8.0 0.00 0.03 0.00 82 1020.2
20260506072506 0 237 8.0 8.0 0.00 0.03 0.00 82 1020.2
20260506072005 0 233 8.0 8.0 0.00 0.03 0.00 83 1020.2
20260506071505 0 237 4.8 4.8 0.00 0.03 0.00 84 1020.2
20260506071006 0 238 3.2 8.0 0.00 0.03 0.00 84 1020.2